Погода в Апастове

Россия / Республика Татарстан     55°12′01″N   48°30′45″E
темп.,
°C
ветер,
м/с
пор.,
м/с
влажн.,
%
обл.,
%
осадки,
мм/ч
давл.,
гПа
погр.,
м
18 апреля, вс
вс1800:00+5св511720 0.0 1022243
03:00+4св37800 0.0 1023133
06:00+4св49780 0.0 1023239
09:00+10всв57540 0.0 1023783
12:00+13всв67425 0.0 10221446
15:00+13всв67405 0.0 10221773
18:00+11всв7115566 0.0 1023797
21:00+7всв7126498 0.0 1025678
19 апреля, пн
пн1900:00+4всв6135299 0.0 1026474
03:00+2всв71364100 0.0 1027496
06:00+1всв81463100 0.0 1027599
09:00+3всв91348100 0.0 1028869
12:00+6в101245100 0.0 10281238
15:00+8в9114376 0.0 10281510
18:00+6в7114896 0.0 1028821
21:00+4в7134486 0.0 1030494
20 апреля, вт
вт2000:00+2в714495 0.0 1030401
03:00+1в613585 0.0 1031331
06:00+1в613620 0.0 1032439
09:00+5вюв710390 0.0 1033944
12:00+8вюв89310 0.0 10321300
15:00+9вюв79270 0.0 10311500
18:00+8вюв611375 0.0 1029604
21:00+5вюв6144398 0.0 1029411
21 апреля, ср
ср2100:00+3вюв61550100 0.0 1029389
03:00+2вюв71654100 0.0 1028519
06:00+3юв81752100 0.0 1027647
09:00+6юв101640100 0.0 1026860
12:00+9юв10143597 0.0 10261035
15:00+7ююв71451100 0.1 10261093
18:00+6ююв81563100 0.3 1026974
21:00+5ююв81682100 0.9 1026780
22 апреля, чт
чт2200:00+5ююв71485100 0.6 1026656
03:00+5ююв61388100 0.6 1027558
06:00+5ююв61188100 0.0 1027482
09:00+6ююв51088100 0.0 1028536
12:00+7ююв6883100 0.0 1029599
15:00+6ююв5990100 0.2 1029505
18:00+5ююв51088100 0.3 1030517
21:00+5ю61181100 0.3 1030481